Durant, OK

9:46 AM CST on December 13, 2019 (GMT -0600)
Eaker

Weather History for KDUA - October, 2019

Change the Weather History Date:

Thursday, October 24, 2019

  Actual Average (WUND) Record (WUND)
Temperature  
Mean Temperature 58 °F -  
Max Temperature 64 °F - - (-1)
Min Temperature 51 °F - - (-1)
Degree Days  
Heating Degree Days 6    
Growing Degree Days 8 (Base 50)    
Moisture  
Dew Point 52 °F    
Average Humidity 82    
Maximum Humidity 94    
Minimum Humidity 52    
Precipitation  
Precipitation 0.00 in - - ()
Sea Level Pressure  
Sea Level Pressure 30.05 in    
Wind  
Wind Speed 8 mph (ENE)    
Max Wind Speed 16 mph    
Max Gust Speed 21 mph    
Visibility 9 miles    
Events Rain    
Averages and records for this station are not official NWS values.
T = Trace of Precipitation, MM = Missing Value Source: NWS Daily Summary

Daily Weather History Graph

Daily Weather History Graph

Search for Another Location

Airport or City:

Astronomy

Oct. 24, 2019 Rise Set
Actual Time 7:37 AM CDT 6:41 PM CDT
Civil Twilight 7:12 AM CDT 7:06 PM CDT
Nautical Twilight 6:43 AM CDT 7:35 PM CDT
Astronomical Twilight 6:14 AM CDT 8:04 PM CDT
Moon 3:25 AM CDT (10/24) 4:54 PM CDT (10/24)
Length of Visible Light 11h 54m
Length of Day
11h 03m
Waning Crescent, 16% of the Moon is Illuminated
Oct 24
Waning Crescent
Oct 27
New
Nov 4
First Quarter
Nov 12
Full
Nov 19
Last Quarter

Hourly Weather History & Observations

Time (CDT) Temp. Dew Point Humidity Pressure Visibility Wind Dir Wind Speed Gust Speed Precip Events Conditions
12:16 AM 64.4 °F 46.4 °F 52% 30.00 in 10.0 mi Calm Calm - N/A   Clear
12:36 AM 64.4 °F 46.4 °F 52% 30.00 in 10.0 mi SSE 15.0 mph 19.6 mph N/A   Scattered Clouds
12:56 AM 64.4 °F 46.4 °F 52% 29.99 in 10.0 mi SSE 13.8 mph 20.7 mph N/A   Clear
1:18 AM 64.4 °F 48.2 °F 56% 30.00 in 10.0 mi SSE 13.8 mph 20.7 mph N/A   Clear
1:57 AM 62.6 °F 48.2 °F 59% 30.00 in 10.0 mi SSE 9.2 mph - N/A   Clear
2:16 AM 62.6 °F 48.2 °F 59% 30.00 in 10.0 mi SSE 10.4 mph - N/A   Clear
2:56 AM 60.8 °F 50.0 °F 68% 30.00 in 10.0 mi Calm Calm - N/A   Clear
3:16 AM 60.8 °F 50.0 °F 68% 30.01 in 10.0 mi Calm Calm - N/A   Clear
4:56 AM 60.8 °F 51.8 °F 72% 30.04 in 10.0 mi ENE 4.6 mph - N/A   Overcast
5:18 AM 60.8 °F 51.8 °F 72% 30.04 in 10.0 mi East 4.6 mph - N/A   Overcast
6:36 AM 62.6 °F 51.8 °F 68% 30.05 in 10.0 mi East 4.6 mph - N/A   Overcast
6:56 AM 62.6 °F 51.8 °F 68% 30.05 in 10.0 mi East 5.8 mph - N/A   Overcast
7:17 AM 60.8 °F 53.6 °F 77% 30.05 in 10.0 mi ESE 8.1 mph - N/A   Overcast
7:36 AM 60.8 °F 53.6 °F 77% 30.05 in 10.0 mi ESE 5.8 mph - N/A   Overcast
7:56 AM 60.8 °F 53.6 °F 77% 30.06 in 10.0 mi East 4.6 mph - N/A   Overcast
8:17 AM 60.8 °F 53.6 °F 77% 30.06 in 10.0 mi East 4.6 mph - N/A Rain Light Rain
8:36 AM 60.8 °F 53.6 °F 77% 30.07 in 10.0 mi East 5.8 mph - N/A Rain Light Rain
9:16 AM 59.0 °F 53.6 °F 82% 30.08 in 10.0 mi ESE 6.9 mph - N/A   Overcast
9:36 AM 59.0 °F 53.6 °F 82% 30.08 in 10.0 mi East 9.2 mph - N/A   Overcast
10:36 AM 59.0 °F 53.6 °F 82% 30.10 in 10.0 mi NNE 11.5 mph - N/A   Overcast
10:56 AM 57.2 °F 53.6 °F 88% 30.09 in 10.0 mi NE 11.5 mph - N/A   Overcast
11:18 AM 57.2 °F 51.8 °F 82% 30.10 in 10.0 mi NE 12.7 mph - N/A   Overcast
11:38 AM 57.2 °F 53.6 °F 88% 30.10 in 7.0 mi NNE 13.8 mph - N/A Rain Light Rain
11:58 AM 57.2 °F 53.6 °F 88% 30.09 in 5.0 mi NE 11.5 mph - N/A Rain Light Rain
12:38 PM 55.4 °F 53.6 °F 94% 30.09 in 2.5 mi NE 13.8 mph - N/A Rain Rain
1:16 PM 55.4 °F 53.6 °F 94% 30.09 in 4.0 mi ENE 9.2 mph - N/A Rain Heavy Rain
1:56 PM 55.4 °F 53.6 °F 94% 30.04 in 5.0 mi NE 10.4 mph - N/A Rain Rain
2:16 PM 55.4 °F 53.6 °F 94% 30.05 in 10.0 mi ENE 9.2 mph - N/A Rain Light Rain
2:36 PM 55.4 °F 53.6 °F 94% 30.02 in 7.0 mi NE 12.7 mph - N/A Rain Rain
3:16 PM 55.4 °F 53.6 °F 94% 30.02 in 2.5 mi NE 9.2 mph - N/A Rain Heavy Rain
3:36 PM 55.4 °F 53.6 °F 94% 30.00 in 10.0 mi ENE 10.4 mph - N/A Rain Light Rain
3:56 PM 55.4 °F 53.6 °F 94% 30.01 in 10.0 mi East 8.1 mph - N/A   Drizzle
4:38 PM 55.4 °F 53.6 °F 94% 30.01 in 2.5 mi East 12.7 mph - N/A Rain Heavy Rain
5:16 PM 57.2 °F 53.6 °F 88% 30.03 in 5.0 mi ENE 11.5 mph 17.3 mph N/A Rain Heavy Rain
5:38 PM 57.2 °F 53.6 °F 88% 30.01 in 10.0 mi ENE 12.7 mph - N/A Rain Light Rain
5:56 PM 57.2 °F 53.6 °F 88% 30.05 in 10.0 mi NE 11.5 mph - N/A Rain Light Rain
6:16 PM 55.4 °F 53.6 °F 94% 30.05 in 10.0 mi East 5.8 mph - N/A Rain Rain
6:36 PM 55.4 °F 53.6 °F 94% 30.04 in 10.0 mi NE 8.1 mph - N/A Rain Light Rain
6:56 PM 55.4 °F 53.6 °F 94% 30.05 in 10.0 mi NNE 9.2 mph - N/A   Light Drizzle
7:17 PM 55.4 °F 53.6 °F 94% 30.05 in 10.0 mi NE 11.5 mph - N/A Rain Light Rain
7:58 PM 55.4 °F 53.6 °F 94% 30.09 in 7.0 mi NNW 16.1 mph 19.6 mph N/A Rain Rain
8:56 PM 55.4 °F 51.8 °F 88% 30.08 in 10.0 mi North 12.7 mph - N/A Rain Rain
9:16 PM 55.4 °F 51.8 °F 88% 30.08 in 10.0 mi NNE 13.8 mph - N/A Rain Light Rain
9:56 PM 53.6 °F 51.8 °F 94% 30.11 in 10.0 mi North 12.7 mph - N/A Rain Rain
10:39 PM 53.6 °F 50.0 °F 88% 30.11 in 7.0 mi NNE 11.5 mph - N/A Rain Rain
11:18 PM 53.6 °F 51.8 °F 94% 30.10 in 10.0 mi NNE 12.7 mph 17.3 mph N/A Rain Light Rain
11:57 PM 51.8 °F 50.0 °F 94% 30.11 in 10.0 mi NNW 11.5 mph - N/A Rain Rain